Track YAOGAN 20A now! 10-day predictions YAOGAN 20A is classified as:
1 40109U 14047A 23272.58063072 -.00000081 00000-0 11792-4 0 9991 2 40109 63.3882 53.4513 0302688 9.9976 350.6890 13.45260606449038